This is the latest recevied weather packets stored in our database for station/object KQ7A. If no packets are shown the sender has not sent any weather packets the latest 10 day(s).
| Time | Temp. | Humidity | Pressure | Rain* | Wind** | Luminosity | Snow |
|---|---|---|---|---|---|---|---|
| 1788454528 | 20° C | 33% | 1015.8 hPa | 0 mm | - | 662 W/m² | - |
| 1788454223 | 19.44° C | 33% | 1015.8 hPa | 0 mm | - | 658 W/m² | - |
| 1788453918 | 20° C | 33% | 1015.8 hPa | 0 mm | - | 631 W/m² | - |
| 1788453614 | 19.44° C | 33% | 1016.1 hPa | 0 mm | - | 603 W/m² | - |
| 1788453309 | 18.89° C | 37% | 1016.2 hPa | 0 mm | - | 560 W/m² | - |
| 1788453004 | 18.33° C | 33% | 1016.3 hPa | 0 mm | - | 514 W/m² | - |
| 1788452701 | 18.33° C | 34% | 1016.2 hPa | 0 mm | - | 449 W/m² | - |
| 1788452396 | 17.78° C | 33% | 1016.3 hPa | 0 mm | - | 419 W/m² | - |
| 1788452091 | 18.33° C | 37% | 1016.2 hPa | 0 mm | - | 405 W/m² | - |
| 1788451802 | 17.78° C | 38% | 1016.3 hPa | 0 mm | - | 375 W/m² | - |
| 1788451486 | 17.22° C | 36% | 1016.4 hPa | 0 mm | - | 363 W/m² | - |
| 1788451185 | 17.22° C | 36% | 1016.4 hPa | 0 mm | - | 340 W/m² | - |
| 1788450880 | 17.22° C | 36% | 1016.3 hPa | 0 mm | - | 312 W/m² | - |
| 1788450575 | 17.22° C | 34% | 1016.4 hPa | 0 mm | - | 300 W/m² | - |
| 1788450266 | 17.22° C | 33% | 1016.7 hPa | 0 mm | - | 281 W/m² | - |
| 1788449961 | 17.22° C | 33% | 1016.8 hPa | 0 mm | - | 261 W/m² | - |
| 1788449656 | 16.11° C | 36% | 1016.7 hPa | 0 mm | - | 248 W/m² | - |
| 1788449353 | 15.56° C | 39% | 1016.7 hPa | 0 mm | - | 232 W/m² | - |
| 1788449048 | 13.89° C | 49% | 1016.9 hPa | 0 mm | - | 153 W/m² | - |
| 1788448743 | 12.78° C | 49% | 1017 hPa | 0 mm | - | 133 W/m² | - |
| 1788448438 | 12.22° C | 50% | 1017 hPa | 0 mm | - | 81 W/m² | - |
| 1788448132 | 11.67° C | 52% | 1016.8 hPa | 0 mm | - | 83 W/m² | - |
| 1788447826 | 11.67° C | 51% | 1016.9 hPa | 0 mm | - | 70 W/m² | - |
| 1788447521 | 11.67° C | 54% | 1016.9 hPa | 0 mm | - | 58 W/m² | - |
| 1788447217 | 12.22° C | 49% | 1016.9 hPa | 0 mm | - | 49 W/m² | - |
* Rain latest hour (hover to see other rain measurements)
** Current wind speed in m/s (hover to see current wind gust speed)